Time,TemperatureF,DewpointF,PressureIn,WindDirection,WindDirectionDegrees,WindSpeedMPH,WindSpeedGustMPH,Humidity,HourlyPrecipIn,Conditions,Clouds,dailyrainin,SoftwareType,DateUTC
2013-07-21 00:00:00,69.4,57.4,30.18,NNE,22,8.9,43.3,66,0.00,,,0.00,WUHU21636XXSP,2013-07-21 05:00:00,
2013-07-21 00:10:00,68.5,57.0,30.18,ENE,67,16.5,39.3,67,0.00,,,0.00,WUHU21636XXSP,2013-07-21 05:10:00,
2013-07-21 00:20:00,66.9,58.6,30.18,ENE,67,8.0,34.6,75,0.00,,,0.00,WUHU21636XXSP,2013-07-21 05:20:00,
2013-07-21 00:30:00,65.8,59.0,30.17,ESE,112,14.0,26.6,79,0.00,,,0.00,WUHU21636XXSP,2013-07-21 05:30:00,
2013-07-21 00:40:00,65.1,58.8,30.17,ESE,112,10.9,24.8,80,0.02,,,0.02,WUHU21636XXSP,2013-07-21 05:40:00,
2013-07-21 00:50:00,64.9,58.8,30.17,ESE,112,4.6,23.9,81,0.02,,,0.02,WUHU21636XXSP,2013-07-21 05:50:00,
2013-07-21 01:00:00,64.8,58.6,30.16,East,90,3.8,24.8,81,0.02,,,0.02,WUHU21636XXSP,2013-07-21 06:00:00,
2013-07-21 01:10:00,64.9,58.8,30.14,East,90,4.4,20.3,81,0.02,,,0.02,WUHU21636XXSP,2013-07-21 06:10:00,
2013-07-21 01:20:00,64.9,58.6,30.14,SE,135,5.8,18.1,80,0.02,,,0.02,WUHU21636XXSP,2013-07-21 06:20:00,
2013-07-21 01:30:00,64.6,58.3,30.14,ESE,112,5.5,15.2,80,0.02,,,0.02,WUHU21636XXSP,2013-07-21 06:30:00,
2013-07-21 01:40:00,64.4,58.1,30.13,SE,135,4.6,12.3,80,0.02,,,0.02,WUHU21636XXSP,2013-07-21 06:40:00,
2013-07-21 01:50:00,64.4,58.1,30.13,SE,135,3.3,10.2,80,0.02,,,0.02,WUHU21636XXSP,2013-07-21 06:50:00,
2013-07-21 02:00:00,64.2,57.9,30.12,SE,135,4.0,10.9,80,0.00,,,0.02,WUHU21636XXSP,2013-07-21 07:00:00,
2013-07-21 02:10:00,64.0,57.7,30.11,SSE,157,5.1,11.4,80,0.00,,,0.02,WUHU21636XXSP,2013-07-21 07:10:00,
2013-07-21 02:20:00,64.2,57.9,30.11,South,180,0.8,12.7,80,0.00,,,0.02,WUHU21636XXSP,2013-07-21 07:20:00,
2013-07-21 02:30:00,64.2,57.6,30.10,ESE,112,4.9,5.1,79,0.00,,,0.02,WUHU21636XXSP,2013-07-21 07:30:00,
2013-07-21 02:40:00,64.2,57.6,30.11,SSE,157,2.4,8.5,79,0.00,,,0.02,WUHU21636XXSP,2013-07-21 07:40:00,
2013-07-21 02:50:00,64.4,57.7,30.10,SE,135,5.8,6.9,79,0.00,,,0.02,WUHU21636XXSP,2013-07-21 07:50:00,
2013-07-21 03:00:00,64.0,57.4,30.09,SE,135,3.8,5.8,79,0.00,,,0.02,WUHU21636XXSP,2013-07-21 08:00:00,
2013-07-21 03:10:00,64.2,57.6,30.09,SE,135,0.0,4.2,79,0.00,,,0.02,WUHU21636XXSP,2013-07-21 08:10:00,
2013-07-21 03:20:00,64.6,57.7,30.09,SSE,157,1.5,3.3,78,0.00,,,0.02,WUHU21636XXSP,2013-07-21 08:20:00,
2013-07-21 03:30:00,64.2,57.2,30.09,South,180,3.8,4.6,78,0.00,,,0.02,WUHU21636XXSP,2013-07-21 08:30:00,
2013-07-21 03:40:00,64.0,57.0,30.08,SSE,157,0.8,3.8,78,0.00,,,0.02,WUHU21636XXSP,2013-07-21 08:40:00,
2013-07-21 03:50:00,64.0,57.0,30.08,SSE,157,4.0,4.0,78,0.00,,,0.02,WUHU21636XXSP,2013-07-21 08:50:00,
2013-07-21 04:00:00,64.0,57.0,30.08,SSE,157,2.6,8.9,78,0.00,,,0.02,WUHU21636XXSP,2013-07-21 09:00:00,
2013-07-21 04:10:00,64.0,57.0,30.07,South,180,3.3,7.1,78,0.00,,,0.02,WUHU21636XXSP,2013-07-21 09:10:00,
2013-07-21 04:20:00,63.7,56.7,30.06,South,180,1.7,6.4,79,0.00,,,0.02,WUHU21636XXSP,2013-07-21 09:20:00,
2013-07-21 04:30:00,63.3,56.7,30.07,SSW,202,0.0,3.5,80,0.00,,,0.02,WUHU21636XXSP,2013-07-21 09:30:00,
2013-07-21 04:40:00,63.0,56.8,30.07,SSW,202,3.8,3.8,81,0.00,,,0.02,WUHU21636XXSP,2013-07-21 09:40:00,
2013-07-21 04:50:00,62.8,56.7,30.07,SSW,202,0.0,3.8,81,0.00,,,0.02,WUHU21636XXSP,2013-07-21 09:50:00,
2013-07-21 05:00:00,63.0,56.8,30.07,SSW,202,0.0,0.0,81,0.00,,,0.02,WUHU21636XXSP,2013-07-21 10:00:00,
2013-07-21 05:10:00,62.8,56.7,30.07,SW,225,5.1,5.1,81,0.00,,,0.02,WUHU21636XXSP,2013-07-21 10:10:00,
2013-07-21 05:20:00,62.8,56.5,30.08,SW,225,2.2,6.4,80,0.00,,,0.02,WUHU21636XXSP,2013-07-21 10:20:00,
2013-07-21 05:30:00,63.0,56.7,30.08,SW,225,1.3,2.2,80,0.00,,,0.02,WUHU21636XXSP,2013-07-21 10:30:00,
2013-07-21 05:40:00,63.1,56.8,30.08,SW,225,0.0,1.3,80,0.00,,,0.02,WUHU21636XXSP,2013-07-21 10:40:00,
2013-07-21 05:50:00,63.3,56.7,30.08,SSW,202,0.0,2.6,79,0.00,,,0.02,WUHU21636XXSP,2013-07-21 10:50:00,
2013-07-21 06:00:00,63.5,56.8,30.08,SSW,202,0.0,0.0,79,0.00,,,0.02,WUHU21636XXSP,2013-07-21 11:00:00,
2013-07-21 06:10:00,63.7,57.0,30.09,SSW,202,0.0,0.0,78,0.00,,,0.02,WUHU21636XXSP,2013-07-21 11:10:00,
2013-07-21 06:20:00,63.0,56.3,30.10,SSW,202,0.0,0.0,79,0.00,,,0.02,WUHU21636XXSP,2013-07-21 11:20:00,
2013-07-21 06:30:00,62.6,56.3,30.10,NW,315,4.2,4.2,80,0.00,,,0.02,WUHU21636XXSP,2013-07-21 11:30:00,
2013-07-21 06:40:00,62.4,56.1,30.11,NW,315,0.6,4.2,80,0.00,,,0.02,WUHU21636XXSP,2013-07-21 11:40:00,
2013-07-21 06:50:00,61.9,55.9,30.13,NNE,22,9.1,9.6,81,0.00,,,0.02,WUHU21636XXSP,2013-07-21 11:50:00,
2013-07-21 07:00:00,61.5,55.9,30.14,NNE,22,6.2,12.5,82,0.00,,,0.02,WUHU21636XXSP,2013-07-21 12:00:00,
2013-07-21 07:10:00,61.5,56.3,30.14,NNE,22,8.9,13.6,83,0.00,,,0.02,WUHU21636XXSP,2013-07-21 12:10:00,
2013-07-21 07:20:00,61.3,56.5,30.14,NNE,22,8.0,15.6,84,0.00,,,0.02,WUHU21636XXSP,2013-07-21 12:20:00,
2013-07-21 07:30:00,61.9,56.8,30.15,NNE,22,4.9,14.3,84,0.00,,,0.02,WUHU21636XXSP,2013-07-21 12:30:00,
2013-07-21 07:40:00,62.2,56.8,30.14,NE,45,6.4,15.8,83,0.00,,,0.02,WUHU21636XXSP,2013-07-21 12:40:00,
2013-07-21 07:50:00,62.8,57.4,30.15,NNE,22,1.5,14.9,83,0.00,,,0.02,WUHU21636XXSP,2013-07-21 12:50:00,
2013-07-21 08:00:00,63.5,57.7,30.15,NE,45,4.6,14.0,82,0.00,,,0.02,WUHU21636XXSP,2013-07-21 13:00:00,
2013-07-21 08:10:00,64.2,57.9,30.15,NNE,22,3.3,13.6,80,0.00,,,0.02,WUHU21636XXSP,2013-07-21 13:10:00,
2013-07-21 08:20:00,64.9,58.6,30.15,NE,45,0.8,7.6,80,0.00,,,0.02,WUHU21636XXSP,2013-07-21 13:20:00,
2013-07-21 08:30:00,65.5,58.3,30.15,NE,45,2.2,9.3,78,0.00,,,0.02,WUHU21636XXSP,2013-07-21 13:30:00,
2013-07-21 08:40:00,66.0,58.5,30.15,NNE,22,2.6,4.6,77,0.00,,,0.02,WUHU21636XXSP,2013-07-21 13:40:00,
2013-07-21 08:50:00,66.9,58.6,30.15,NE,45,1.7,3.8,75,0.00,,,0.02,WUHU21636XXSP,2013-07-21 13:50:00,
2013-07-21 09:01:00,67.8,58.5,30.15,NNE,22,5.3,9.1,72,0.00,,,0.02,WUHU21636XXSP,2013-07-21 14:01:00,
2013-07-21 09:11:00,68.4,59.0,30.14,NE,45,1.5,5.5,72,0.00,,,0.02,WUHU21636XXSP,2013-07-21 14:11:00,
2013-07-21 09:21:00,68.7,59.5,30.14,NE,45,0.4,3.3,73,0.00,,,0.02,WUHU21636XXSP,2013-07-21 14:21:00,
2013-07-21 09:31:00,69.1,58.8,30.14,NE,45,2.6,2.6,70,0.00,,,0.02,WUHU21636XXSP,2013-07-21 14:31:00,
2013-07-21 09:41:00,69.4,59.2,30.14,ESE,112,2.9,2.9,70,0.00,,,0.02,WUHU21636XXSP,2013-07-21 14:41:00,
2013-07-21 09:51:00,69.8,59.9,30.14,SE,135,4.4,4.4,71,0.00,,,0.02,WUHU21636XXSP,2013-07-21 14:51:00,
2013-07-21 10:01:00,70.5,60.3,30.13,ESE,112,1.1,8.7,70,0.00,,,0.02,WUHU21636XXSP,2013-07-21 15:01:00,
2013-07-21 10:11:00,70.9,59.7,30.13,SE,135,2.9,4.2,68,0.00,,,0.02,WUHU21636XXSP,2013-07-21 15:11:00,
2013-07-21 10:21:00,71.4,59.7,30.12,SSE,157,2.6,5.3,67,0.00,,,0.02,WUHU21636XXSP,2013-07-21 15:21:00,
2013-07-21 10:31:00,72.1,60.1,30.11,SSE,157,3.5,7.3,67,0.00,,,0.02,WUHU21636XXSP,2013-07-21 15:31:00,
2013-07-21 10:41:00,72.7,61.5,30.11,SSE,157,1.3,3.5,68,0.00,,,0.02,WUHU21636XXSP,2013-07-21 15:41:00,
2013-07-21 10:51:00,73.2,60.6,30.11,SSE,157,4.6,4.6,65,0.00,,,0.02,WUHU21636XXSP,2013-07-21 15:51:00,
2013-07-21 11:01:00,73.8,60.6,30.10,SSE,157,3.3,4.6,64,0.00,,,0.02,WUHU21636XXSP,2013-07-21 16:01:00,
2013-07-21 11:11:00,74.5,61.3,30.10,SSE,157,3.8,7.6,64,0.00,,,0.02,WUHU21636XXSP,2013-07-21 16:11:00,
2013-07-21 11:21:00,75.0,60.6,30.10,SSE,157,5.5,6.9,61,0.00,,,0.02,WUHU21636XXSP,2013-07-21 16:21:00,
2013-07-21 11:31:00,74.8,60.4,30.09,SSE,157,0.0,5.5,62,0.00,,,0.02,WUHU21636XXSP,2013-07-21 16:31:00,
2013-07-21 11:41:00,75.7,61.3,30.09,SSE,157,5.5,5.5,61,0.00,,,0.02,WUHU21636XXSP,2013-07-21 16:41:00,
2013-07-21 11:51:00,76.6,60.6,30.09,SSE,157,0.0,5.5,58,0.00,,,0.02,WUHU21636XXSP,2013-07-21 16:51:00,
2013-07-21 12:01:00,77.2,61.7,30.09,South,180,3.5,9.3,59,0.00,,,0.02,WUHU21636XXSP,2013-07-21 17:01:00,
2013-07-21 12:11:00,77.9,61.3,30.09,ESE,112,4.9,6.2,57,0.00,,,0.02,WUHU21636XXSP,2013-07-21 17:11:00,
2013-07-21 12:21:00,78.6,61.0,30.09,ESE,112,3.8,13.6,55,0.00,,,0.02,WUHU21636XXSP,2013-07-21 17:21:00,
2013-07-21 12:31:00,78.8,62.2,30.09,SE,135,1.7,8.5,57,0.00,,,0.02,WUHU21636XXSP,2013-07-21 17:31:00,
2013-07-21 12:41:00,79.7,63.0,30.08,SE,135,0.0,8.5,57,0.00,,,0.02,WUHU21636XXSP,2013-07-21 17:41:00,
2013-07-21 12:51:00,80.6,63.3,30.08,ESE,112,3.1,8.7,56,0.00,,,0.02,WUHU21636XXSP,2013-07-21 17:51:00,
2013-07-21 13:01:00,81.3,63.5,30.08,South,180,2.4,7.6,56,0.00,,,0.02,WUHU21636XXSP,2013-07-21 18:01:00,
2013-07-21 13:11:00,82.2,63.1,30.07,SSE,157,1.5,12.5,53,0.00,,,0.02,WUHU21636XXSP,2013-07-21 18:11:00,
2013-07-21 13:21:00,82.2,62.6,30.07,ESE,112,0.0,5.3,52,0.00,,,0.02,WUHU21636XXSP,2013-07-21 18:21:00,
2013-07-21 13:31:00,82.2,62.6,30.07,SSE,157,1.5,4.4,52,0.00,,,0.02,WUHU21636XXSP,2013-07-21 18:31:00,
2013-07-21 13:41:00,82.6,61.3,30.06,ESE,112,0.0,12.9,52,0.00,,,0.02,WUHU21636XXSP,2013-07-21 18:41:00,
2013-07-21 13:51:00,83.1,64.0,30.06,South,180,3.5,5.5,53,0.00,,,0.02,WUHU21636XXSP,2013-07-21 18:51:00,
2013-07-21 14:01:00,84.7,64.6,30.05,South,180,3.1,16.3,51,0.00,,,0.02,WUHU21636XXSP,2013-07-21 19:01:00,
2013-07-21 14:11:00,84.7,64.6,30.04,SSE,157,3.5,3.5,50,0.00,,,0.02,WUHU21636XXSP,2013-07-21 19:11:00,
2013-07-21 14:21:00,85.6,66.4,30.04,SSE,157,0.0,7.1,53,0.00,,,0.02,WUHU21636XXSP,2013-07-21 19:21:00,
2013-07-21 14:31:00,86.7,66.9,30.04,SSE,157,7.1,8.2,52,0.00,,,0.02,WUHU21636XXSP,2013-07-21 19:31:00,
2013-07-21 14:41:00,88.0,66.4,30.03,South,180,3.3,9.8,49,0.00,,,0.02,WUHU21636XXSP,2013-07-21 19:41:00,
2013-07-21 14:51:00,88.7,66.9,30.03,SSW,202,2.6,7.6,49,0.00,,,0.02,WUHU21636XXSP,2013-07-21 19:51:00,
2013-07-21 15:01:00,89.1,66.0,30.03,WSW,247,3.1,10.7,47,0.00,,,0.02,WUHU21636XXSP,2013-07-21 20:01:00,
2013-07-21 15:11:00,90.1,65.1,30.03,WSW,247,4.0,10.0,44,0.00,,,0.02,WUHU21636XXSP,2013-07-21 20:11:00,
2013-07-21 15:21:00,90.0,66.2,30.02,SSW,202,4.2,8.9,46,0.00,,,0.02,WUHU21636XXSP,2013-07-21 20:21:00,
2013-07-21 15:31:00,90.3,67.1,30.02,SSW,202,5.1,11.1,47,0.00,,,0.02,WUHU21636XXSP,2013-07-21 20:31:00,
2013-07-21 15:41:00,90.5,65.3,30.02,SSW,202,3.8,6.7,44,0.00,,,0.02,WUHU21636XXSP,2013-07-21 20:41:00,
2013-07-21 15:51:00,90.1,66.4,30.02,SSE,157,3.3,4.9,47,0.00,,,0.02,WUHU21636XXSP,2013-07-21 20:51:00,
2013-07-21 16:01:00,91.2,66.0,30.01,SSW,202,9.1,14.0,44,0.00,,,0.02,WUHU21636XXSP,2013-07-21 21:01:00,
2013-07-21 16:11:00,92.1,64.9,30.01,SSW,202,4.9,13.1,41,0.00,,,0.02,WUHU21636XXSP,2013-07-21 21:11:00,
2013-07-21 16:21:00,92.8,65.5,30.01,SW,225,2.6,13.1,41,0.00,,,0.02,WUHU21636XXSP,2013-07-21 21:21:00,
2013-07-21 16:31:00,93.0,65.1,30.01,SW,225,3.1,11.1,41,0.00,,,0.02,WUHU21636XXSP,2013-07-21 21:31:00,
2013-07-21 16:41:00,93.7,65.7,30.01,SW,225,8.2,12.7,40,0.00,,,0.02,WUHU21636XXSP,2013-07-21 21:41:00,
2013-07-21 16:51:00,93.6,63.9,30.01,SW,225,2.0,14.5,38,0.00,,,0.02,WUHU21636XXSP,2013-07-21 21:51:00,
2013-07-21 17:01:00,93.4,62.1,30.01,SSE,157,1.7,8.5,42,0.00,,,0.02,WUHU21636XXSP,2013-07-21 22:01:00,
2013-07-21 17:11:00,93.2,63.7,30.00,WSW,247,2.4,10.9,38,0.00,,,0.02,WUHU21636XXSP,2013-07-21 22:11:00,
2013-07-21 17:21:00,93.4,65.3,30.00,SSW,202,8.7,14.7,40,0.00,,,0.02,WUHU21636XXSP,2013-07-21 22:21:00,
2013-07-21 17:31:00,93.4,64.6,30.00,SSW,202,6.4,17.2,40,0.00,,,0.02,WUHU21636XXSP,2013-07-21 22:31:00,
2013-07-21 17:41:00,93.2,64.4,30.00,SW,225,4.6,14.0,39,0.00,,,0.02,WUHU21636XXSP,2013-07-21 22:41:00,
2013-07-21 17:51:00,93.2,65.3,30.00,SW,225,6.4,13.4,40,0.00,,,0.02,WUHU21636XXSP,2013-07-21 22:51:00,
2013-07-21 18:01:00,93.4,63.7,30.00,SW,225,3.3,14.7,40,0.00,,,0.02,WUHU21636XXSP,2013-07-21 23:01:00,
2013-07-21 18:11:00,93.4,64.6,30.00,SW,225,3.3,5.8,39,0.00,,,0.02,WUHU21636XXSP,2013-07-21 23:11:00,
2013-07-21 18:21:00,93.0,63.5,29.99,SSW,202,3.1,13.8,38,0.00,,,0.02,WUHU21636XXSP,2013-07-21 23:21:00,
2013-07-21 18:31:00,93.0,63.5,29.99,SSW,202,3.8,14.9,39,0.00,,,0.02,WUHU21636XXSP,2013-07-21 23:31:00,
2013-07-21 18:41:00,92.7,62.2,29.99,SSW,202,4.4,13.8,38,0.00,,,0.02,WUHU21636XXSP,2013-07-21 23:41:00,
2013-07-21 18:51:00,92.5,61.3,29.99,SW,225,10.2,14.9,37,0.00,,,0.02,WUHU21636XXSP,2013-07-21 23:51:00,
2013-07-21 19:01:00,92.3,62.8,29.98,SSW,202,8.5,14.7,38,0.00,,,0.02,WUHU21636XXSP,2013-07-22 00:01:00,
2013-07-21 19:11:00,91.9,62.4,29.99,SW,225,10.5,13.4,38,0.00,,,0.02,WUHU21636XXSP,2013-07-22 00:11:00,
2013-07-21 19:21:00,91.6,62.2,29.98,WSW,247,8.5,12.5,38,0.00,,,0.02,WUHU21636XXSP,2013-07-22 00:21:00,
2013-07-21 19:31:00,91.0,61.0,29.98,WSW,247,9.1,12.0,37,0.00,,,0.02,WUHU21636XXSP,2013-07-22 00:31:00,
2013-07-21 19:41:00,90.3,60.3,29.99,SSW,202,6.7,12.3,37,0.00,,,0.02,WUHU21636XXSP,2013-07-22 00:41:00,
2013-07-21 19:51:00,89.8,60.6,29.98,SSW,202,7.3,9.1,39,0.00,,,0.02,WUHU21636XXSP,2013-07-22 00:51:00,
2013-07-21 20:01:00,89.2,61.7,29.98,SSW,202,3.5,11.6,40,0.00,,,0.02,WUHU21636XXSP,2013-07-22 01:01:00,
2013-07-21 20:11:00,88.9,62.1,29.98,SSW,202,5.1,12.5,41,0.00,,,0.02,WUHU21636XXSP,2013-07-22 01:11:00,
2013-07-21 20:21:00,88.3,62.2,29.98,SSW,202,4.2,9.3,42,0.00,,,0.02,WUHU21636XXSP,2013-07-22 01:21:00,
2013-07-21 20:31:00,87.6,63.0,29.98,SSW,202,6.0,10.2,43,0.00,,,0.02,WUHU21636XXSP,2013-07-22 01:31:00,
2013-07-21 20:41:00,87.1,62.4,29.98,SSW,202,4.9,9.8,44,0.00,,,0.02,WUHU21636XXSP,2013-07-22 01:41:00,
2013-07-21 20:51:00,86.7,62.1,29.98,SSW,202,3.8,6.7,44,0.00,,,0.02,WUHU21636XXSP,2013-07-22 01:51:00,
2013-07-21 21:01:00,86.0,62.8,29.98,SSW,202,4.4,6.2,46,0.00,,,0.02,WUHU21636XXSP,2013-07-22 02:01:00,
2013-07-21 21:11:00,85.6,62.4,29.98,SSW,202,4.9,5.1,47,0.00,,,0.02,WUHU21636XXSP,2013-07-22 02:11:00,
2013-07-21 21:21:00,84.9,62.4,29.98,SSW,202,4.2,11.8,47,0.00,,,0.02,WUHU21636XXSP,2013-07-22 02:21:00,
2013-07-21 21:31:00,84.4,62.4,29.99,SSW,202,6.2,12.9,48,0.00,,,0.02,WUHU21636XXSP,2013-07-22 02:31:00,
2013-07-21 21:41:00,83.8,62.6,29.99,SSW,202,5.3,12.9,49,0.00,,,0.02,WUHU21636XXSP,2013-07-22 02:41:00,
2013-07-21 21:51:00,83.1,61.9,29.99,SW,225,9.6,12.0,49,0.00,,,0.02,WUHU21636XXSP,2013-07-22 02:51:00,
2013-07-21 22:01:00,82.6,62.1,29.99,SW,225,8.7,14.5,50,0.00,,,0.02,WUHU21636XXSP,2013-07-22 03:01:00,
2013-07-21 22:11:00,82.0,62.1,30.00,SSW,202,6.9,16.1,51,0.00,,,0.02,WUHU21636XXSP,2013-07-22 03:11:00,
2013-07-21 22:21:00,81.5,62.1,30.00,SSW,202,4.9,11.4,52,0.00,,,0.02,WUHU21636XXSP,2013-07-22 03:21:00,
2013-07-21 22:31:00,81.1,62.2,30.00,SSW,202,3.3,10.0,53,0.00,,,0.02,WUHU21636XXSP,2013-07-22 03:31:00,
2013-07-21 22:41:00,80.4,62.1,30.00,South,180,2.4,8.0,54,0.00,,,0.02,WUHU21636XXSP,2013-07-22 03:41:00,
2013-07-21 22:51:00,79.9,62.1,30.00,SSW,202,2.2,10.2,55,0.00,,,0.02,WUHU21636XXSP,2013-07-22 03:51:00,
2013-07-21 23:01:00,79.5,61.9,30.00,South,180,2.9,4.6,55,0.00,,,0.02,WUHU21636XXSP,2013-07-22 04:01:00,
2013-07-21 23:11:00,79.3,62.2,30.00,SSW,202,0.0,4.4,56,0.00,,,0.02,WUHU21636XXSP,2013-07-22 04:11:00,
2013-07-21 23:21:00,79.0,61.9,30.00,SSW,202,2.0,4.4,56,0.00,,,0.02,WUHU21636XXSP,2013-07-22 04:21:00,
2013-07-21 23:31:00,78.8,62.2,30.00,South,180,2.9,3.3,57,0.00,,,0.02,WUHU21636XXSP,2013-07-22 04:31:00,
2013-07-21 23:41:00,78.4,62.4,30.00,South,180,2.9,2.9,58,0.00,,,0.02,WUHU21636XXSP,2013-07-22 04:41:00,
2013-07-21 23:51:00,78.1,62.1,30.01,SSE,157,0.0,3.8,58,0.00,,,0.02,WUHU21636XXSP,2013-07-22 04:51:00,